User: anonymous   Login
Location: Unspecified
(0.0000°N, 0.0000°E)
Time: 23:29:00
(UTC+00:00)
Language:

Cosmos 1861 - Orbit

View from above orbital plane
View from above orbital plane
View from above satellite
View from above satellite

Ground track
Ground track

The orbit data is extracted from the following two-line orbital elements,

1 18129U 87054A   22228.44308700  .00000046  00000-0  33067-4 0  9990
2 18129  82.9241 279.6858 0010495 244.2891 126.3656 13.73067709761313
Epoch (UTC): 16 August 2022 10:38:02
Eccentricity: 0.0010495
inclination: 82.9241°
perigee height: 981 km
apogee height: 996 km
right ascension of ascending node: 279.6858°
argument of perigee: 244.2891°
revolutions per day: 13.73067709
mean anomaly at epoch: 126.3656°
orbit number at epoch: 76131

The dashed part of the orbit path shows where the satellite is in the earth's shadow,  

DLR